Find Starlink 31562

NORAD ID: 59340 Int'l Des: 2024-057 Owner: SPXS Country: US Constellation: starlink operational
LEOCIRCULAR

現在のビュー

3D地球を読み込み中...

About Starlink 31562

Starlink 31562 (NORAD 59340) is a starlink constellation satellite (v2 mini) launched Mar 25, 2024 by SPXS of US. It operates in LEO, CIRCULAR orbit with a mass of 730.00 kg.

Starlink 31562について

説明を読み込み中...

次回通過

Passes for default location (London). Set your location on the main map for personalized predictions.

高度履歴

Loading altitude history...

軌道要素

1 59340U 24057W 26173.48874301 .00002224 00000-0 90327-4 0 9998
2 59340 43.0084 330.2126 0001783 295.5624 64.5043 15.27577511125697
Epoch: Jun 22, 2026 • Age: 21 hours

現在のステータス

高度 484.0 km
速度 7.62 km/s
衛星直下点 -4.40°S, 104.24°E
打ち上げ日 Mar 25, 2024
運用期間 2.2 years
タイプ internet

技術仕様

分類 Payload
質量 730.00 kg
乾燥質量 700.00 kg
総質量 730.00 kg
長さ 0.30 m
直径 4.10 m
スパン 29.00 m
形状 Box + pan
製造者 SPXS
バスタイプ Starlink V2M
フェーズステータス In Orbit
所有者/国 SPXS/US

Most Searched